Location: Newark
(43.6583°N, 1.6617°E)
Time: 01:15:23
(UTC+00:00)

Tiros 1 - Pass Details

Date: 30 August 2019
Orbit: 630 x 664 km, 48.4° (Epoch: 17 October)

Event Time Altitude Azimuth Distance (km) Brightness Sun altitude
Exits shadow 04:30:55 10° 244° (WSW) 1,997 9.0 -8.3°
Maximum altitude 04:32:08 11° 229° (SW) 1,935 9.0 -8.1°
Drops below altitude 10° 04:33:37 10° 210° (SSW) 2,029 9.2 -7.9°
Sets 04:37:35 0° 177° (S) 2,942 10.4 -7.2°
